Stations météo

réclame
Mon MeteoGroup
Lyon/Satolas, France (7481): Température de l'air & dewpoint: 15.05.2019 01:00:00 - 21.05.2019 01:00:00 (CEST)Lyon/Satolas, France (7481): Température de l'air 5cm: 15.05.2019 01:00:00 - 21.05.2019 01:00:00 (CEST)Lyon/Satolas, France (7481): Température de l'air -20cm & Température de l'air -100cm: 15.05.2019 01:00:00 - 21.05.2019 01:00:00 (CEST)Lyon/Satolas, France (7481): Vitesse du vent & gusts: 15.05.2019 01:00:00 - 21.05.2019 01:00:00 (CEST)Lyon/Satolas, France (7481): Direction du vent: 15.05.2019 01:00:00 - 21.05.2019 01:00:00 (CEST)Lyon/Satolas, France (7481): reduced air pressure: 15.05.2019 01:00:00 - 21.05.2019 01:00:00 (CEST)Lyon/Satolas, France (7481): visibility: 15.05.2019 01:00:00 - 21.05.2019 01:00:00 (CEST)Lyon/Satolas, France (7481): Quantités de précipitations: 15.05.2019 01:00:00 - 21.05.2019 01:00:00 (CEST)
Date & Time tt [°C] td [°C] tt 5cm [°C] tt -20cm [°C] tt -100cm [°C] ff [km/h] ff [knt] fx [km/h] fx [knt] dd ppp [hPa] vv [km] rr [mm]
21.05.2019 01:00:00 - - - - - - - - - - - - -
21.05.2019 00:00:00 13,1 12,2 12,5 15,5 14,1 10 6 30 16 N 1013,9 8 0,6
20.05.2019 23:00:00 13,7 11,7 13,0 15,6 14,1 9 5 18 10 WNW 1013,4 12 0,0
20.05.2019 22:00:00 14,0 12,0 12,9 15,7 14,1 4 2 14 7 WNW 1012,9 12 0,0
20.05.2019 21:00:00 13,8 11,8 12,9 15,8 14,1 8 4 16 8 NNW 1012,3 12 0,0
20.05.2019 20:00:00 13,9 11,8 12,9 15,9 14,1 9 5 27 15 N 1012,0 20 0,2
20.05.2019 19:00:00 14,4 11,9 13,4 15,9 14,1 9 5 26 14 N 1011,5 20 0,2
20.05.2019 18:00:00 15,6 11,4 15,4 15,8 14,1 15 8 28 15 N 1011,1 30 0,0
20.05.2019 17:00:00 16,5 10,3 18,0 15,7 14,1 21 11 35 19 N 1010,8 30 0,0
20.05.2019 16:00:00 16,7 10,1 18,1 15,5 14,0 23 12 32 17 NW 1010,6 30 0,0
20.05.2019 15:00:00 16,9 11,0 17,7 15,3 14,1 20 11 35 19 NW 1010,3 25 0,0
20.05.2019 14:00:00 16,2 10,9 19,2 15,1 14,0 22 12 30 16 WNW 1010,3 18 0,0
20.05.2019 13:00:00 15,4 11,2 15,2 15,0 14,1 20 11 29 16 WNW 1010,3 25 0,0
20.05.2019 12:00:00 14,6 11,0 15,9 14,8 14,1 22 12 31 17 NW 1009,9 25 0,0
20.05.2019 11:00:00 14,4 11,2 14,1 14,8 14,1 16 9 26 14 NW 1009,7 20 0,0
20.05.2019 10:00:00 13,4 11,6 12,6 14,8 14,1 13 7 21 11 WNW 1009,4 17 0,0
20.05.2019 09:00:00 12,8 11,9 12,3 14,8 14,1 12 7 18 10 WNW 1009,1 13 0,6
20.05.2019 08:00:00 12,6 11,5 12,3 14,8 14,1 14 8 21 12 NNW 1008,7 7 0,4
20.05.2019 07:00:00 13,0 11,1 12,4 14,9 14,0 11 6 17 9 NW 1008,1 11 0,0
20.05.2019 06:00:00 13,0 10,9 12,3 15,0 14,0 10 5 16 8 NW 1007,7 12 0,0
20.05.2019 05:00:00 13,0 10,7 12,3 15,1 14,0 9 5 16 8 NW 1007,4 20 0,0
20.05.2019 04:00:00 13,4 10,7 12,8 15,2 14,0 14 7 22 12 NW 1007,3 35 0,0
20.05.2019 03:00:00 13,6 10,8 12,9 15,3 14,0 12 7 24 13 NW 1007,4 35 0,0
20.05.2019 02:00:00 13,6 10,8 12,3 15,4 14,0 13 7 19 11 NW 1007,3 35 0,0
20.05.2019 01:00:00 13,4 11,3 12,4 15,5 14,0 8 5 17 9 NW 1007,5 35 0,0
20.05.2019 00:00:00 13,7 11,2 12,8 15,5 14,0 7 4 19 10 NW 1007,6 40 0,0
19.05.2019 23:00:00 13,7 10,9 13,2 15,7 14,0 10 5 24 13 NW 1007,5 40 0,0
19.05.2019 22:00:00 14,3 10,5 13,8 15,8 14,0 18 10 28 15 NNW 1007,0 45 0,0
19.05.2019 21:00:00 14,9 10,5 14,3 15,9 14,0 15 8 26 14 NNW 1006,3 49 0,0
19.05.2019 20:00:00 15,4 10,2 15,0 16,0 14,0 13 7 27 15 N 1006,0 50 0,0
19.05.2019 19:00:00 16,0 10,1 15,8 16,0 14,0 13 7 24 13 N 1005,4 50 0,0
19.05.2019 18:00:00 16,0 9,9 15,8 16,0 14,0 13 7 21 11 NNE 1005,3 50 0,0
19.05.2019 17:00:00 16,9 9,6 18,4 15,9 14,0 12 6 18 10 NNW 1004,9 45 0,0
19.05.2019 16:00:00 15,9 10,4 17,2 15,6 13,9 9 5 21 12 N 1005,4 20 0,0
19.05.2019 15:00:00 16,0 10,3 18,1 15,4 14,0 11 6 22 12 ENE 1005,5 35 0,0
19.05.2019 14:00:00 15,5 10,5 19,7 15,2 14,0 14 8 23 12 NNE 1005,9 19 0,0
19.05.2019 13:00:00 14,0 10,4 15,8 15,1 13,9 16 9 24 13 N 1006,3 15 0,0
19.05.2019 12:00:00 12,6 10,5 14,0 15,0 13,9 12 7 23 12 N 1006,6 12 0,0
19.05.2019 11:00:00 12,1 10,0 11,8 15,0 13,9 16 9 24 13 NNW 1006,6 15 0,0
19.05.2019 10:00:00 11,3 10,4 11,5 15,1 13,9 12 7 22 12 N 1006,9 12 0,2
19.05.2019 09:00:00 11,2 10,3 11,2 15,1 13,9 16 8 20 11 N 1006,7 8 0,2
19.05.2019 08:00:00 11,1 10,3 10,7 15,3 13,9 11 6 18 10 NNW 1006,7 12 0,0
19.05.2019 07:00:00 11,0 10,1 10,7 15,4 13,9 9 5 18 10 NNW 1006,5 10 0,0
19.05.2019 06:00:00 11,3 10,2 10,7 15,5 13,9 10 6 17 9 NNW 1006,4 10 0,2
19.05.2019 05:00:00 11,8 10,9 11,2 15,6 13,9 11 6 17 9 NNW 1006,3 10 0,2
19.05.2019 04:00:00 12,2 11,7 11,8 15,7 13,9 5 3 10 5 NNW 1006,4 7 0,2
19.05.2019 03:00:00 12,4 11,8 11,9 15,9 13,9 0 0 10 6 N 1006,4 6 0,0
19.05.2019 02:00:00 12,4 11,8 12,0 16,0 13,9 2 1 8 4 W 1006,8 12 0,2
19.05.2019 01:00:00 12,6 11,8 12,0 16,2 13,9 3 2 10 6 NNW 1006,9 12 0,2
19.05.2019 00:00:00 12,8 11,7 12,2 16,3 13,9 9 5 18 10 NNW 1007,1 12 0,2
18.05.2019 23:00:00 13,2 11,3 12,5 16,5 13,9 9 5 19 11 NW 1007,1 30 0,0
18.05.2019 22:00:00 13,3 10,8 12,1 16,7 13,9 9 5 14 8 NNW 1006,9 40 0,0
18.05.2019 21:00:00 14,1 10,7 13,2 16,8 13,9 5 3 11 6 N 1006,3 40 0,0
18.05.2019 20:00:00 14,6 10,0 15,2 16,9 13,9 8 4 12 6 N 1005,6 40 0,0
18.05.2019 19:00:00 15,0 10,6 16,1 16,9 13,9 8 5 17 9 NW 1005,2 40 0,0
18.05.2019 18:00:00 15,6 10,1 14,0 16,8 13,9 10 5 22 12 SSW 1005,0 40 0,0
18.05.2019 17:00:00 16,2 10,7 15,4 16,6 13,8 16 9 24 13 S 1004,5 40 0,0
18.05.2019 16:00:00 18,4 8,4 23,2 16,2 13,9 2 1 17 9 S 1004,3 60 0,0
18.05.2019 15:00:00 17,9 9,0 23,3 15,8 13,9 9 5 16 8 SSW 1004,7 60 0,0
18.05.2019 14:00:00 17,2 9,4 23,2 15,3 13,9 4 2 14 7 S 1004,9 60 0,0
18.05.2019 13:00:00 16,8 8,2 23,3 14,8 13,9 2 1 16 9 ESE 1005,2 50 0,0
18.05.2019 12:00:00 16,7 9,9 22,1 14,3 13,9 6 4 16 9 ESE 1005,3 40 0,0
18.05.2019 11:00:00 13,9 9,9 17,7 14,0 13,9 4 2 11 6 SE 1005,7 30 0,0
18.05.2019 10:00:00 13,6 9,2 14,0 13,8 13,9 6 3 12 6 ESE 1005,6 15 0,0
18.05.2019 09:00:00 11,2 9,6 12,3 13,8 13,9 5 3 13 7 S 1005,9 12 0,0
18.05.2019 08:00:00 10,6 10,0 10,0 13,9 13,9 6 4 9 5 SSE 1005,7 6 0,0
18.05.2019 07:00:00 9,9 9,6 9,5 13,9 13,9 4 2 8 4 SSE 1005,8 3,5 0,2
18.05.2019 06:00:00 9,8 9,3 9,4 14,0 13,8 6 4 9 5 SE 1005,9 2,5 0,0
18.05.2019 05:00:00 10,0 9,2 9,4 14,1 13,9 6 4 9 5 E 1006,2 2,0 0,0
18.05.2019 04:00:00 10,2 9,4 9,5 14,2 13,9 3 1 6 4 S 1006,5 3,5 0,4
18.05.2019 03:00:00 10,2 9,6 9,7 14,3 13,9 6 3 9 5 SSW 1007,0 3,5 0,2
18.05.2019 02:00:00 10,4 9,5 9,7 14,4 13,8 0 0 9 5 N 1007,2 6 0,0
18.05.2019 01:00:00 10,4 9,6 10,0 14,5 13,8 6 3 10 5 SE 1007,4 4,5 0,0
18.05.2019 00:00:00 10,5 9,7 9,8 14,6 13,8 4 2 14 7 S 1007,6 7 0,0
17.05.2019 23:00:00 10,4 9,5 9,6 14,7 13,8 9 5 13 7 SE 1007,7 9 0,2
17.05.2019 22:00:00 10,3 9,4 9,8 14,8 13,8 4 2 11 6 E 1007,7 7 0,0
17.05.2019 21:00:00 10,5 9,6 10,0 15,0 13,8 8 4 12 7 SE 1007,5 9 0,2
17.05.2019 20:00:00 10,6 9,7 10,0 15,0 13,8 6 3 16 9 ESE 1007,4 9 0,2
17.05.2019 19:00:00 10,6 9,0 10,0 15,1 13,8 9 5 14 8 ESE 1007,3 8 1,4
17.05.2019 18:00:00 11,6 9,2 10,8 15,2 13,8 5 3 15 8 SE 1007,3 25 1,0
17.05.2019 17:00:00 12,7 7,8 11,7 15,2 13,8 10 5 16 9 S 1007,1 25 0,2
17.05.2019 16:00:00 13,8 7,6 12,7 15,2 13,7 8 5 19 10 S 1006,7 30 0,0
17.05.2019 15:00:00 14,5 5,8 14,7 15,2 13,8 11 6 18 10 SSE 1006,4 40 0,0
17.05.2019 14:00:00 14,7 5,2 14,9 15,2 13,7 10 6 23 12 S 1006,3 40 0,0
17.05.2019 13:00:00 15,2 4,8 16,6 15,1 13,7 12 6 22 12 S 1005,8 40 0,0
17.05.2019 12:00:00 15,0 4,9 15,7 15,1 13,7 11 6 19 11 S 1005,6 19 0,0
17.05.2019 11:00:00 14,2 6,0 14,9 15,0 13,7 12 7 24 13 SSE 1005,2 40 0,0
17.05.2019 10:00:00 14,0 6,4 13,8 15,0 13,7 17 9 29 15 SSE 1004,9 40 0,0
17.05.2019 09:00:00 12,7 7,2 12,2 15,1 13,7 17 9 26 14 SE 1005,2 40 0,0
17.05.2019 08:00:00 12,2 6,2 11,5 15,3 13,7 13 7 21 12 SE 1005,4 40 0,0
17.05.2019 07:00:00 11,9 5,1 11,2 15,4 13,7 9 5 22 12 SSE 1005,7 50 0,0
17.05.2019 06:00:00 12,2 4,4 11,4 15,6 13,7 13 7 24 13 SSE 1005,5 30 0,0
17.05.2019 05:00:00 12,7 2,8 11,6 15,9 13,6 15 8 27 14 SSE 1006,0 30 0,0
17.05.2019 04:00:00 12,6 4,5 11,6 16,1 13,7 12 7 23 13 S 1006,4 30 0,0
17.05.2019 03:00:00 12,7 6,1 11,0 16,3 13,6 12 7 16 9 S 1006,8 30 0,0
17.05.2019 02:00:00 13,4 6,9 11,0 16,5 13,6 10 6 16 9 SE 1007,4 35 0,0
17.05.2019 01:00:00 13,9 6,5 9,5 16,8 13,6 6 3 12 6 SSE 1007,9 35 0,0
17.05.2019 00:00:00 13,2 6,3 9,3 17,1 13,6 0 0 6 3 N 1008,1 35 0,0
16.05.2019 23:00:00 13,4 6,5 10,1 17,3 13,6 0 0 12 6 N 1008,3 35 0,0
16.05.2019 22:00:00 14,2 6,3 10,8 17,6 13,6 6 3 9 5 N 1008,4 40 0,0
16.05.2019 21:00:00 15,8 6,5 13,0 17,9 13,6 5 3 13 7 N 1008,1 30 0,0
16.05.2019 20:00:00 17,3 5,2 19,5 17,9 13,6 9 5 16 8 N 1008,0 30 0,0
16.05.2019 19:00:00 17,8 4,7 21,1 17,8 13,6 10 5 23 12 N 1008,3 30 0,0
16.05.2019 18:00:00 18,1 4,6 21,2 17,5 13,6 7 4 29 15 NNW 1008,9 30 0,0
16.05.2019 17:00:00 17,8 4,0 26,5 16,9 13,6 9 5 24 13 NW 1009,4 30 0,0
16.05.2019 16:00:00 17,3 4,3 25,5 16,2 13,6 12 6 22 12 N 1009,9 30 0,0
16.05.2019 15:00:00 16,5 2,1 25,2 15,4 13,6 7 4 21 11 ENE 1010,8 30 0,0
16.05.2019 14:00:00 15,7 3,1 25,0 14,6 13,6 4 2 15 8 WNW 1011,6 30 0,0
16.05.2019 13:00:00 15,0 3,2 23,6 14,0 13,6 6 4 17 9 WNW 1012,1 40 0,0
16.05.2019 12:00:00 13,6 3,4 22,6 13,5 13,6 4 2 21 12 NW 1012,9 40 0,0
16.05.2019 11:00:00 11,7 3,2 18,7 13,2 13,6 8 5 18 10 W 1013,7 40 0,0
16.05.2019 10:00:00 10,5 3,7 18,0 13,1 13,6 6 3 13 7 W 1014,2 40 0,0
16.05.2019 09:00:00 8,5 2,7 14,9 13,1 13,6 6 3 13 7 WSW 1014,8 60 0,0
16.05.2019 08:00:00 7,8 3,1 9,0 13,2 13,6 7 4 11 6 WNW 1014,9 60 0,0
16.05.2019 07:00:00 6,2 3,2 0,0 13,5 13,6 0 0 6 3 N 1015,0 60 0,0
16.05.2019 06:00:00 5,1 2,4 -0,1 13,8 13,6 2 1 10 5 WSW 1015,1 60 0,0
16.05.2019 05:00:00 6,2 2,5 0,6 14,1 13,6 0 0 8 4 N 1015,1 50 0,0
16.05.2019 04:00:00 6,8 2,5 1,8 14,4 13,6 5 3 6 3 WSW 1015,3 50 0,0
16.05.2019 03:00:00 7,1 2,6 1,9 14,7 13,6 0 0 9 5 N 1015,1 60 0,0
16.05.2019 02:00:00 7,6 2,7 3,8 14,9 13,5 5 3 13 7 N 1015,4 60 0,0
16.05.2019 01:00:00 8,5 2,7 6,0 15,2 13,6 9 5 16 8 NNW 1015,9 60 0,0
16.05.2019 00:00:00 9,3 2,6 7,2 15,5 13,5 14 7 21 11 NNW 1016,2 60 0,0
15.05.2019 23:00:00 11,2 2,2 8,9 15,8 13,6 13 7 28 15 N 1016,3 60 0,0
15.05.2019 22:00:00 12,8 2,3 11,2 16,0 13,6 16 9 42 23 N 1016,0 60 0,0
15.05.2019 21:00:00 14,4 1,6 13,2 16,2 13,5 28 15 49 27 N 1015,4 60 0,0
15.05.2019 20:00:00 15,4 1,9 16,9 16,3 13,5 33 18 55 30 NNW 1015,1 60 0,0
15.05.2019 19:00:00 16,3 2,3 18,1 16,3 13,6 37 20 53 29 NNW 1014,8 40 0,0
15.05.2019 18:00:00 16,6 2,2 21,1 16,1 13,6 37 20 59 32 NNW 1014,6 40 0,0
15.05.2019 17:00:00 16,9 3,2 21,9 15,6 13,5 39 21 62 34 NNW 1014,5 40 0,0
15.05.2019 16:00:00 17,2 3,5 21,9 15,1 13,5 41 22 58 31 NNW 1014,6 40 0,0
15.05.2019 15:00:00 16,7 3,7 21,6 14,5 13,6 36 20 54 29 NNW 1014,8 40 0,0
15.05.2019 14:00:00 15,7 3,8 20,7 13,9 13,5 34 18 52 28 NNW 1015,2 40 0,0
15.05.2019 13:00:00 14,4 2,6 20,2 13,5 13,6 31 17 53 29 NNW 1015,7 40 0,0
15.05.2019 12:00:00 13,6 1,2 18,7 13,1 13,5 31 17 48 26 NNW 1016,2 40 0,0
15.05.2019 11:00:00 12,4 0,5 16,6 12,9 13,5 32 18 47 26 N 1016,6 40 0,0
15.05.2019 10:00:00 10,9 0,6 14,3 12,8 13,5 30 16 49 27 N 1016,9 40 0,0
15.05.2019 09:00:00 9,1 0,5 11,8 12,9 13,5 29 16 47 25 N 1016,9 40 0,0
15.05.2019 08:00:00 8,0 -0,3 9,2 13,1 13,5 29 16 48 26 N 1017,0 50 0,0
15.05.2019 07:00:00 7,5 -0,5 6,4 13,4 13,5 29 16 48 26 N 1016,9 50 0,0
15.05.2019 06:00:00 7,6 -0,9 6,2 13,6 13,5 28 15 44 24 N 1016,6 50 0,0
15.05.2019 05:00:00 7,6 -0,1 6,5 13,9 13,5 24 13 37 20 NNW 1017,2 50 0,0
15.05.2019 04:00:00 8,6 -0,5 7,1 14,2 13,5 18 10 26 14 N 1017,4 50 0,0
15.05.2019 03:00:00 9,0 -0,3 7,4 14,5 13,5 18 10 26 14 NNW 1017,9 50 0,0
15.05.2019 02:00:00 9,5 -0,1 7,7 14,7 13,5 15 8 28 15 N 1018,5 54 0,0
15.05.2019 01:00:00 10,7 -0,5 9,3 15,1 13,5 19 10 32 17 N 1018,6 50 0,0

tt = Température de l'air
td = dewpoint
tt 5cm = Température de l'air 5cm
tt -20cm = Température de l'air -20cm
tt -100cm = Température de l'air -100cm
ff = Vitesse du vent
fx = gusts
dd = Direction du vent
ppp = reduced air pressure
vv = visibility
rr = Quantités de précipitations

stations d'obs. à proximité